Tracking 31027 objects as of 19-Jul-2025
HD Live streaming from Space Station
objects crossing your sky now

STARLINK-31058

Track STARLINK-31058 now!
10-day predictions
STARLINK-31058 is classified as:


NORAD ID: 58677
Int'l Code: 2023-211L
Perigee: 489.6 km
Apogee: 490.8 km
Inclination: 43.0 °
Period: 94.3 minutes
Semi major axis: 6861 km
RCS: Unknown
Launch date: December 29, 2023
Source: United States (US)
Launch site: AIR FORCE EASTERN TEST RANGE (AFETR)
Your satellite tracking list
SL-8 DEB
Track 1 satellite(s)




NASA's NSSDC Master Catalog

Two Line Element Set (TLE):
1 58677U 23211L   25199.38725932 -.00000202  00000-0  21859-5 0  9992
2 58677  43.0047 328.2788 0000889 251.3437 108.7318 15.27576055 86635
Source of the keplerian elements: AFSPC